| time (UTC) | temp C | wind direction | speed KPH | gust KPH | rain 1hr cm | rain 24hr cm | rain mn cm | humidity % | barometer mb |
| 20260901190401 | 38 | 41 | 6.4 | 17.7 | 0.00 | 0.00 | 0.00 | 40 | 1014.5 |
| 20260901190052 | 38 | 136 | 1.6 | 14.5 | 0.00 | 0.00 | 0.00 | 43 | 1014.7 |
| 20260901185901 | 38 | 222 | 3.2 | 14.5 | 0.00 | 0.00 | 0.00 | 43 | 1014.5 |
| 20260901185623 | 38 | 226 | 6.4 | 16.1 | 0.00 | 0.00 | 0.00 | 44 | 1014.6 |
| 20260901184902 | 38 | 186 | 6.4 | 16.1 | 0.00 | 0.00 | 0.00 | 40 | 1014.7 |
| 20260901184626 | 37 | 253 | 6.4 | 17.7 | 0.00 | 0.00 | 0.00 | 43 | 1015.0 |
| 20260901184402 | 38 | 237 | 4.8 | 14.5 | 0.00 | 0.00 | 0.00 | 43 | 1014.6 |
| 20260901183901 | 37 | 265 | 4.8 | 14.5 | 0.00 | 0.00 | 0.00 | 45 | 1014.9 |
| 20260901183401 | 37 | 86 | 6.4 | 14.5 | 0.00 | 0.00 | 0.00 | 46 | 1014.9 |
| 20260901183057 | 37 | 158 | 4.8 | 14.5 | 0.00 | 0.00 | 0.00 | 45 | 1015.3 |
| 20260901182901 | 37 | 51 | 4.8 | 14.5 | 0.00 | 0.00 | 0.00 | 47 | 1015.1 |
| 20260901182402 | 37 | 136 | 4.8 | 9.7 | 0.00 | 0.00 | 0.00 | 46 | 1015.2 |
| 20260901181901 | 37 | 262 | 4.8 | 12.9 | 0.00 | 0.00 | 0.00 | 46 | 1015.2 |
| 20260901181627 | 37 | 350 | 4.8 | 12.9 | 0.00 | 0.00 | 0.00 | 46 | 1015.6 |
| 20260901181401 | 37 | 248 | 8.0 | 12.9 | 0.00 | 0.00 | 0.00 | 46 | 1015.3 |
| 20260901180901 | 37 | 59 | 3.2 | 14.5 | 0.00 | 0.00 | 0.00 | 48 | 1015.4 |
| 20260901180406 | 37 | 262 | 3.2 | 16.1 | 0.00 | 0.00 | 0.00 | 49 | 1015.5 |
| 20260901180402 | 37 | 188 | 6.4 | 14.5 | 0.00 | 0.00 | 0.00 | 47 | 1015.6 |
| 20260901180109 | 36 | 231 | 3.2 | 16.1 | 0.00 | 0.00 | 0.00 | 47 | 1015.8 |
| 20260901175401 | 36 | 136 | 6.4 | 16.1 | 0.00 | 0.00 | 0.00 | 47 | 1015.7 |
| 20260901174914 | 36 | 139 | 6.4 | 17.7 | 0.00 | 0.00 | 0.00 | 51 | 1015.9 |
| 20260901174805 | 36 | 348 | 4.8 | 17.7 | 0.00 | 0.00 | 0.00 | 50 | 1016.1 |
| 20260901174402 | 36 | 212 | 4.8 | 17.7 | 0.00 | 0.00 | 0.00 | 51 | 1015.8 |
| 20260901173901 | 36 | 285 | 3.2 | 9.7 | 0.00 | 0.00 | 0.00 | 52 | 1015.9 |
| 20260901173401 | 36 | 276 | 4.8 | 9.7 | 0.00 | 0.00 | 0.00 | 51 | 1015.8 |
| 20260901173102 | 36 | 345 | 3.2 | 17.7 | 0.00 | 0.00 | 0.00 | 51 | 1016.1 |
| 20260901172901 | 36 | 334 | 4.8 | 14.5 | 0.00 | 0.00 | 0.00 | 52 | 1015.9 |
| 20260901172400 | 35 | 136 | 6.4 | 14.5 | 0.00 | 0.00 | 0.00 | 53 | 1015.8 |
| 20260901171900 | 35 | 141 | 6.4 | 11.3 | 0.00 | 0.00 | 0.00 | 52 | 1016.0 |
| 20260901171627 | 35 | 259 | 3.2 | 11.3 | 0.00 | 0.00 | 0.00 | 52 | 1016.3 |
| 20260901171400 | 36 | 108 | 3.2 | 9.7 | 0.00 | 0.00 | 0.00 | 52 | 1016.1 |
| 20260901170903 | 35 | 217 | 4.8 | 14.5 | 0.00 | 0.00 | 0.00 | 52 | 1016.1 |
| 20260901170402 | 35 | 193 | 4.8 | 14.5 | 0.00 | 0.00 | 0.00 | 55 | 1016.1 |
| 20260901170106 | 35 | 54 | 4.8 | 12.9 | 0.00 | 0.00 | 0.00 | 52 | 1016.6 |
| 20260901165903 | 35 | 118 | 4.8 | 12.9 | 0.00 | 0.00 | 0.00 | 53 | 1016.3 |
| 20260901165613 | 34 | 214 | 4.8 | 14.5 | 0.00 | 0.00 | 0.00 | 57 | 1016.4 |
| 20260901165602 | 35 | 327 | 3.2 | 12.9 | 0.00 | 0.00 | 0.00 | 56 | 1016.2 |
| 20260901164606 | 33 | 78 | 6.4 | 14.5 | 0.00 | 0.00 | 0.00 | 57 | 1016.6 |
| 20260901164402 | 34 | 249 | 6.4 | 14.5 | 0.00 | 0.00 | 0.00 | 58 | 1016.4 |
| 20260901163902 | 33 | 296 | 4.8 | 12.9 | 0.00 | 0.00 | 0.00 | 60 | 1016.4 |
| 20260901163403 | 33 | 39 | 3.2 | 12.9 | 0.00 | 0.00 | 0.00 | 60 | 1016.4 |
| 20260901163121 | 33 | 72 | 4.8 | 12.9 | 0.00 | 0.00 | 0.00 | 60 | 1016.6 |
| 20260901162903 | 33 | 126 | 6.4 | 12.9 | 0.00 | 0.00 | 0.00 | 61 | 1016.3 |
| 20260901162624 | 33 | 321 | 6.4 | 12.9 | 0.00 | 0.00 | 0.00 | 63 | 1016.3 |
| 20260901161901 | 33 | 277 | 4.8 | 14.5 | 0.00 | 0.00 | 0.00 | 63 | 1016.3 |
| 20260901161606 | 32 | 250 | 4.8 | 12.9 | 0.00 | 0.00 | 0.00 | 64 | 1016.6 |
| 20260901161401 | 33 | 188 | 4.8 | 14.5 | 0.00 | 0.00 | 0.00 | 64 | 1016.4 |
| 20260901160902 | 33 | 196 | 3.2 | 9.7 | 0.00 | 0.00 | 0.00 | 64 | 1016.5 |
| 20260901160401 | 33 | 69 | 1.6 | 12.9 | 0.00 | 0.00 | 0.00 | 66 | 1016.6 |
| 20260901160107 | 32 | 144 | 4.8 | 12.9 | 0.00 | 0.00 | 0.00 | 65 | 1016.7 |
| 20260901155901 | 32 | 285 | 4.8 | 12.9 | 0.00 | 0.00 | 0.00 | 65 | 1016.6 |
| 20260901155400 | 32 | 56 | 3.2 | 11.3 | 0.00 | 0.00 | 0.00 | 66 | 1016.5 |
| 20260901155119 | 32 | 186 | 6.4 | 11.3 | 0.00 | 0.00 | 0.00 | 68 | 1016.5 |
| 20260901154614 | 32 | 143 | 4.8 | 16.1 | 0.00 | 0.00 | 0.00 | 67 | 1016.7 |
| 20260901154400 | 32 | 105 | 6.4 | 9.7 | 0.00 | 0.00 | 0.00 | 67 | 1016.5 |
| 20260901153903 | 31 | 351 | 3.2 | 11.3 | 0.00 | 0.00 | 0.00 | 69 | 1016.4 |
| 20260901153402 | 31 | 215 | 4.8 | 11.3 | 0.00 | 0.00 | 0.00 | 69 | 1016.5 |
| 20260901153102 | 31 | 297 | 3.2 | 14.5 | 0.00 | 0.00 | 0.00 | 69 | 1016.7 |
| 20260901152903 | 31 | 96 | 3.2 | 16.1 | 0.00 | 0.00 | 0.00 | 70 | 1016.4 |
| 20260901152415 | 31 | 174 | 4.8 | 16.1 | 0.00 | 0.00 | 0.00 | 71 | 1016.4 |
| 20260901151902 | 31 | 241 | 4.8 | 16.1 | 0.00 | 0.00 | 0.00 | 72 | 1016.4 |
| 20260901151558 | 30 | 88 | 4.8 | 16.1 | 0.00 | 0.00 | 0.00 | 72 | 1016.6 |
| 20260901151402 | 31 | 99 | 6.4 | 16.1 | 0.00 | 0.00 | 0.00 | 72 | 1016.3 |
| 20260901150901 | 30 | 215 | 6.4 | 14.5 | 0.00 | 0.00 | 0.00 | 72 | 1016.3 |
| 20260901150401 | 30 | 205 | 6.4 | 12.9 | 0.00 | 0.00 | 0.00 | 73 | 1016.3 |
| 20260901150056 | 30 | 18 | 3.2 | 14.5 | 0.00 | 0.00 | 0.00 | 73 | 1016.6 |
| 20260901145901 | 30 | 203 | 4.8 | 14.5 | 0.00 | 0.00 | 0.00 | 75 | 1016.2 |
| 20260901145401 | 30 | 194 | 6.4 | 14.5 | 0.00 | 0.00 | 0.00 | 74 | 1016.2 |
| 20260901145127 | 30 | 280 | 6.4 | 9.7 | 0.00 | 0.00 | 0.00 | 75 | 1016.3 |
| 20260901144603 | 30 | 254 | 3.2 | 14.5 | 0.00 | 0.00 | 0.00 | 76 | 1016.6 |
| 20260901144401 | 30 | 15 | 3.2 | 9.7 | 0.00 | 0.00 | 0.00 | 77 | 1016.4 |
| 20260901144121 | 30 | 333 | 3.2 | 12.9 | 0.00 | 0.00 | 0.00 | 77 | 1016.4 |
| 20260901143402 | 30 | 56 | 4.8 | 16.1 | 0.00 | 0.00 | 0.00 | 77 | 1016.4 |
| 20260901143108 | 29 | 73 | 4.8 | 14.5 | 0.00 | 0.00 | 0.00 | 78 | 1016.6 |
| 20260901142902 | 29 | 270 | 4.8 | 16.1 | 0.00 | 0.00 | 0.00 | 77 | 1016.4 |
| 20260901142401 | 29 | 49 | 4.8 | 12.9 | 0.00 | 0.00 | 0.00 | 78 | 1016.5 |
| 20260901141901 | 29 | 292 | 3.2 | 11.3 | 0.00 | 0.00 | 0.00 | 80 | 1016.4 |
| 20260901141723 | 28 | 183 | 3.2 | 11.3 | 0.00 | 0.00 | 0.00 | 80 | 1016.7 |
| 20260901141401 | 28 | 296 | 4.8 | 9.7 | 0.00 | 0.00 | 0.00 | 80 | 1016.5 |
| 20260901141345 | 28 | 298 | 3.2 | 9.7 | 0.00 | 0.00 | 0.00 | 81 | 1016.4 |
| 20260901140854 | 28 | 197 | 4.8 | 9.7 | 0.00 | 0.00 | 0.00 | 82 | 1016.4 |
| 20260901140120 | 28 | 276 | 3.2 | 12.9 | 0.00 | 0.00 | 0.00 | 81 | 1016.4 |
| 20260901135903 | 28 | 308 | 4.8 | 9.7 | 0.00 | 0.00 | 0.00 | 82 | 1016.3 |
| 20260901135402 | 28 | 272 | 3.2 | 9.7 | 0.00 | 0.00 | 0.00 | 83 | 1016.2 |
| 20260901134902 | 28 | 240 | 3.2 | 9.7 | 0.00 | 0.00 | 0.00 | 83 | 1016.2 |
| 20260901134639 | 27 | 189 | 1.6 | 9.7 | 0.00 | 0.00 | 0.00 | 83 | 1016.5 |
| 20260901134402 | 27 | 217 | 3.2 | 9.7 | 0.00 | 0.00 | 0.00 | 84 | 1016.2 |
| 20260901133903 | 27 | 180 | 4.8 | 9.7 | 0.00 | 0.00 | 0.00 | 84 | 1016.1 |
| 20260901133621 | 27 | 184 | 3.2 | 8.0 | 0.00 | 0.00 | 0.00 | 84 | 1016.0 |
| 20260901133105 | 27 | 330 | 1.6 | 6.4 | 0.00 | 0.00 | 0.00 | 84 | 1016.3 |
| 20260901132900 | 27 | 50 | 3.2 | 6.4 | 0.00 | 0.00 | 0.00 | 84 | 1016.1 |
| 20260901132400 | 27 | 113 | 1.6 | 4.8 | 0.00 | 0.00 | 0.00 | 84 | 1016.1 |
| 20260901131901 | 27 | 38 | 1.6 | 3.2 | 0.00 | 0.00 | 0.00 | 84 | 1016.0 |
| 20260901131702 | 27 | 201 | 1.6 | 6.4 | 0.00 | 0.00 | 0.00 | 84 | 1016.3 |
| 20260901131401 | 27 | 115 | 3.2 | 4.8 | 0.00 | 0.00 | 0.00 | 85 | 1016.0 |
| 20260901130859 | 27 | 138 | 1.6 | 6.4 | 0.00 | 0.00 | 0.00 | 85 | 1015.9 |
| 20260901130354 | 27 | 113 | 0.0 | 6.4 | 0.00 | 0.00 | 0.00 | 86 | 1016.0 |
| 20260901130125 | 27 | 94 | 1.6 | 6.4 | 0.00 | 0.00 | 0.00 | 86 | 1015.9 |
| 20260901130108 | 26 | 188 | 1.6 | 6.4 | 0.00 | 0.00 | 0.00 | 85 | 1016.2 |
| 20260901125350 | 26 | 68 | 1.6 | 6.4 | 0.00 | 0.00 | 0.00 | 87 | 1015.8 |
| 20260901124840 | 26 | 160 | 1.6 | 3.2 | 0.00 | 0.00 | 0.00 | 87 | 1015.7 |
| 20260901124608 | 26 | 0 | 0.0 | 4.8 | 0.00 | 0.00 | 0.00 | 87 | 1016.0 |
| 20260901124340 | 26 | 252 | 0.0 | 3.2 | 0.00 | 0.00 | 0.00 | 88 | 1015.7 |
| 20260901123830 | 26 | 334 | 1.6 | 4.8 | 0.00 | 0.00 | 0.00 | 89 | 1015.6 |
| 20260901123551 | 26 | 248 | 1.6 | 4.8 | 0.00 | 0.00 | 0.00 | 89 | 1015.6 |
| 20260901123104 | 26 | 97 | 0.0 | 4.8 | 0.00 | 0.00 | 0.00 | 88 | 1015.8 |
| 20260901122822 | 26 | 226 | 0.0 | 3.2 | 0.00 | 0.00 | 0.00 | 89 | 1015.6 |
| 20260901122318 | 26 | 30 | 0.0 | 4.8 | 0.00 | 0.00 | 0.00 | 89 | 1015.7 |
| 20260901121815 | 26 | 237 | 0.0 | 4.8 | 0.00 | 0.00 | 0.00 | 88 | 1015.6 |
| 20260901121604 | 26 | 351 | 0.0 | 4.8 | 0.00 | 0.00 | 0.00 | 88 | 1015.7 |
| 20260901121304 | 26 | 259 | 0.0 | 3.2 | 0.00 | 0.00 | 0.00 | 88 | 1015.5 |
| 20260901120803 | 26 | 27 | 0.0 | 3.2 | 0.00 | 0.00 | 0.00 | 88 | 1015.4 |
| 20260901120302 | 26 | 233 | 0.0 | 6.4 | 0.00 | 0.00 | 0.00 | 88 | 1015.3 |
| 20260901120108 | 26 | 83 | 0.0 | 4.8 | 0.00 | 0.00 | 0.00 | 88 | 1015.5 |
| 20260901115803 | 26 | 311 | 1.6 | 6.4 | 0.00 | 0.00 | 0.00 | 88 | 1015.3 |
| 20260901115306 | 26 | 216 | 1.6 | 4.8 | 0.00 | 0.00 | 0.00 | 88 | 1015.3 |
| 20260901114812 | 26 | 292 | 0.0 | 4.8 | 0.00 | 0.00 | 0.00 | 88 | 1015.4 |
| 20260901114557 | 26 | 358 | 0.0 | 4.8 | 0.00 | 0.00 | 0.00 | 87 | 1015.6 |
| 20260901114255 | 26 | 139 | 1.6 | 4.8 | 0.00 | 0.00 | 0.00 | 88 | 1015.3 |
| 20260901113749 | 26 | 215 | 0.0 | 4.8 | 0.00 | 0.00 | 0.00 | 88 | 1015.4 |
| 20260901113245 | 26 | 359 | 1.6 | 6.4 | 0.00 | 0.00 | 0.00 | 88 | 1015.4 |
| 20260901113143 | 26 | 75 | 1.6 | 8.0 | 0.00 | 0.00 | 0.00 | 87 | 1015.5 |
| 20260901112740 | 26 | 295 | 1.6 | 8.0 | 0.00 | 0.00 | 0.00 | 88 | 1015.3 |
| 20260901112240 | 26 | 103 | 3.2 | 8.0 | 0.00 | 0.00 | 0.00 | 88 | 1015.3 |
| 20260901111736 | 26 | 325 | 1.6 | 6.4 | 0.00 | 0.00 | 0.00 | 88 | 1015.3 |
| 20260901111604 | 26 | 276 | 1.6 | 6.4 | 0.00 | 0.00 | 0.00 | 87 | 1015.6 |
| 20260901111231 | 26 | 258 | 1.6 | 6.4 | 0.00 | 0.00 | 0.00 | 88 | 1015.3 |
| 20260901110729 | 26 | 5 | 1.6 | 6.4 | 0.00 | 0.00 | 0.00 | 88 | 1015.4 |
| 20260901110230 | 26 | 298 | 0.0 | 6.4 | 0.00 | 0.00 | 0.00 | 88 | 1015.5 |
| 20260901110108 | 26 | 0 | 0.0 | 4.8 | 0.00 | 0.00 | 0.00 | 87 | 1015.5 |
| 20260901105952 | 26 | 37 | 1.6 | 6.4 | 0.00 | 0.00 | 0.00 | 87 | 1015.4 |
| 20260901105229 | 26 | 236 | 0.0 | 4.8 | 0.00 | 0.00 | 0.00 | 87 | 1015.3 |
| 20260901104729 | 26 | 162 | 1.6 | 4.8 | 0.00 | 0.00 | 0.00 | 87 | 1015.3 |
| 20260901104601 | 26 | 290 | 0.0 | 9.7 | 0.00 | 0.00 | 0.00 | 87 | 1015.5 |
| 20260901104228 | 26 | 181 | 0.0 | 9.7 | 0.00 | 0.00 | 0.00 | 87 | 1015.3 |
| 20260901103950 | 26 | 345 | 1.6 | 9.7 | 0.00 | 0.00 | 0.00 | 87 | 1015.3 |
| 20260901103229 | 26 | 50 | 0.0 | 6.4 | 0.00 | 0.00 | 0.00 | 87 | 1015.2 |
| 20260901103106 | 26 | 13 | 1.6 | 6.4 | 0.00 | 0.00 | 0.00 | 86 | 1015.4 |
| 20260901102950 | 26 | 111 | 3.2 | 4.8 | 0.00 | 0.00 | 0.00 | 87 | 1015.3 |
| 20260901102229 | 26 | 226 | 0.0 | 3.2 | 0.00 | 0.00 | 0.00 | 87 | 1015.5 |
| 20260901101728 | 26 | 93 | 1.6 | 8.0 | 0.00 | 0.00 | 0.00 | 86 | 1015.3 |
| 20260901101616 | 26 | 73 | 1.6 | 8.0 | 0.00 | 0.00 | 0.00 | 86 | 1015.6 |
| 20260901101229 | 26 | 18 | 3.2 | 8.0 | 0.00 | 0.00 | 0.00 | 86 | 1015.4 |
| 20260901100728 | 26 | 28 | 3.2 | 6.4 | 0.00 | 0.00 | 0.00 | 86 | 1015.4 |
| 20260901100229 | 26 | 202 | 1.6 | 4.8 | 0.00 | 0.00 | 0.00 | 86 | 1015.5 |
| 20260901100108 | 26 | 215 | 1.6 | 4.8 | 0.00 | 0.00 | 0.00 | 86 | 1015.6 |
| 20260901095729 | 26 | 256 | 1.6 | 4.8 | 0.00 | 0.00 | 0.00 | 86 | 1015.5 |
| 20260901095229 | 26 | 198 | 0.0 | 4.8 | 0.00 | 0.00 | 0.00 | 86 | 1015.6 |
| 20260901094729 | 27 | 11 | 0.0 | 8.0 | 0.00 | 0.00 | 0.00 | 86 | 1015.5 |
| 20260901094603 | 26 | 0 | 1.6 | 8.0 | 0.00 | 0.00 | 0.00 | 85 | 1015.6 |
| 20260901094453 | 27 | 241 | 3.2 | 8.0 | 0.00 | 0.00 | 0.00 | 86 | 1015.4 |
| 20260901093729 | 27 | 349 | 1.6 | 6.4 | 0.00 | 0.00 | 0.00 | 86 | 1015.5 |
| 20260901093230 | 27 | 215 | 3.2 | 8.0 | 0.00 | 0.00 | 0.00 | 86 | 1015.4 |
| 20260901093100 | 26 | 56 | 1.6 | 6.4 | 0.00 | 0.00 | 0.00 | 85 | 1015.6 |
| 20260901092730 | 27 | 95 | 3.2 | 8.0 | 0.00 | 0.00 | 0.00 | 86 | 1015.4 |
| 20260901092231 | 27 | 234 | 1.6 | 4.8 | 0.00 | 0.00 | 0.00 | 85 | 1015.5 |
| 20260901091730 | 27 | 269 | 1.6 | 4.8 | 0.00 | 0.00 | 0.00 | 85 | 1015.6 |
| 20260901091555 | 26 | 214 | 0.0 | 11.3 | 0.00 | 0.00 | 0.00 | 85 | 1015.7 |
| 20260901091229 | 27 | 19 | 3.2 | 11.3 | 0.00 | 0.00 | 0.00 | 85 | 1015.6 |
| 20260901090954 | 27 | 202 | 1.6 | 11.3 | 0.00 | 0.00 | 0.00 | 85 | 1015.6 |
| 20260901090447 | 27 | 193 | 1.6 | 6.4 | 0.00 | 0.00 | 0.00 | 85 | 1015.7 |
| 20260901090428 | 27 | 212 | 3.2 | 9.7 | 0.00 | 0.00 | 0.00 | 85 | 1015.6 |
| 20260901090100 | 27 | 330 | 1.6 | 8.0 | 0.00 | 0.00 | 0.00 | 85 | 1015.8 |
| 20260901085229 | 27 | 229 | 1.6 | 6.4 | 0.00 | 0.00 | 0.00 | 85 | 1015.8 |
| 20260901084729 | 27 | 176 | 1.6 | 6.4 | 0.00 | 0.00 | 0.00 | 85 | 1015.7 |
| 20260901084600 | 27 | 335 | 0.0 | 6.4 | 0.00 | 0.00 | 0.00 | 84 | 1015.9 |
| 20260901084229 | 27 | 126 | 1.6 | 6.4 | 0.00 | 0.00 | 0.00 | 85 | 1015.7 |
| 20260901083729 | 27 | 13 | 1.6 | 8.0 | 0.00 | 0.00 | 0.00 | 84 | 1015.7 |
| 20260901083229 | 27 | 169 | 1.6 | 8.0 | 0.00 | 0.00 | 0.00 | 84 | 1015.7 |
| 20260901083100 | 27 | 47 | 1.6 | 9.7 | 0.00 | 0.00 | 0.00 | 84 | 1015.8 |
| 20260901082954 | 27 | 290 | 1.6 | 8.0 | 0.00 | 0.00 | 0.00 | 84 | 1015.8 |
| 20260901082229 | 27 | 233 | 1.6 | 8.0 | 0.00 | 0.00 | 0.00 | 84 | 1015.7 |
| 20260901082000 | 27 | 274 | 1.6 | 8.0 | 0.00 | 0.00 | 0.00 | 84 | 1015.8 |
| 20260901081602 | 27 | 7 | 1.6 | 8.0 | 0.00 | 0.00 | 0.00 | 84 | 1016.1 |
| 20260901081229 | 27 | 225 | 1.6 | 8.0 | 0.00 | 0.00 | 0.00 | 84 | 1015.9 |
| 20260901080729 | 27 | 219 | 1.6 | 8.0 | 0.00 | 0.00 | 0.00 | 84 | 1015.8 |
| 20260901080231 | 27 | 338 | 1.6 | 11.3 | 0.00 | 0.00 | 0.00 | 84 | 1015.8 |
| 20260901080053 | 27 | 191 | 1.6 | 9.7 | 0.00 | 0.00 | 0.00 | 83 | 1016.0 |
| 20260901075731 | 27 | 250 | 1.6 | 11.3 | 0.00 | 0.00 | 0.00 | 84 | 1015.9 |
| 20260901075230 | 27 | 93 | 1.6 | 8.0 | 0.00 | 0.00 | 0.00 | 83 | 1015.7 |
| 20260901074731 | 27 | 226 | 3.2 | 6.4 | 0.00 | 0.00 | 0.00 | 83 | 1015.8 |
| 20260901074606 | 27 | 349 | 1.6 | 6.4 | 0.00 | 0.00 | 0.00 | 83 | 1016.2 |
| 20260901074229 | 27 | 257 | 3.2 | 6.4 | 0.00 | 0.00 | 0.00 | 83 | 1015.8 |
| 20260901073729 | 27 | 255 | 1.6 | 9.7 | 0.00 | 0.00 | 0.00 | 83 | 1015.9 |
| 20260901073229 | 27 | 255 | 3.2 | 9.7 | 0.00 | 0.00 | 0.00 | 83 | 1015.8 |
| 20260901073106 | 27 | 238 | 1.6 | 6.4 | 0.00 | 0.00 | 0.00 | 83 | 1016.0 |
| 20260901072729 | 27 | 287 | 1.6 | 6.4 | 0.00 | 0.00 | 0.00 | 83 | 1015.7 |
| 20260901072230 | 27 | 191 | 1.6 | 6.4 | 0.00 | 0.00 | 0.00 | 83 | 1015.8 |
| 20260901071728 | 27 | 247 | 3.2 | 6.4 | 0.00 | 0.00 | 0.00 | 83 | 1016.0 |
| 20260901071720 | 27 | 326 | 1.6 | 9.7 | 0.00 | 0.00 | 0.00 | 83 | 1016.0 |
| 20260901071603 | 27 | 44 | 1.6 | 6.4 | 0.00 | 0.00 | 0.00 | 82 | 1016.2 |
| 20260901071000 | 28 | 243 | 3.2 | 9.7 | 0.00 | 0.00 | 0.00 | 83 | 1016.1 |
| 20260901070230 | 28 | 191 | 4.8 | 9.7 | 0.00 | 0.00 | 0.00 | 83 | 1016.1 |
| 20260901070103 | 27 | 124 | 1.6 | 8.0 | 0.00 | 0.00 | 0.00 | 82 | 1016.3 |
| 20260901065959 | 28 | 53 | 3.2 | 8.0 | 0.00 | 0.00 | 0.00 | 83 | 1016.1 |
| 20260901065229 | 28 | 118 | 3.2 | 8.0 | 0.00 | 0.00 | 0.00 | 82 | 1016.1 |
| 20260901064729 | 28 | 202 | 3.2 | 8.0 | 0.00 | 0.00 | 0.00 | 82 | 1016.1 |
| 20260901064555 | 27 | 317 | 1.6 | 6.4 | 0.00 | 0.00 | 0.00 | 82 | 1016.3 |
| 20260901064228 | 28 | 210 | 1.6 | 8.0 | 0.00 | 0.00 | 0.00 | 82 | 1016.1 |
| 20260901063729 | 28 | 129 | 3.2 | 9.7 | 0.00 | 0.00 | 0.00 | 82 | 1016.0 |
| 20260901063230 | 28 | 122 | 3.2 | 9.7 | 0.00 | 0.00 | 0.00 | 82 | 1016.1 |
| 20260901063100 | 28 | 329 | 3.2 | 9.7 | 0.00 | 0.00 | 0.00 | 82 | 1016.3 |
| 20260901062729 | 28 | 343 | 1.6 | 6.4 | 0.00 | 0.00 | 0.00 | 82 | 1016.0 |
| 20260901062229 | 28 | 292 | 1.6 | 8.0 | 0.00 | 0.00 | 0.00 | 82 | 1016.2 |
| 20260901061729 | 28 | 232 | 1.6 | 11.3 | 0.00 | 0.00 | 0.00 | 82 | 1016.1 |
| 20260901061602 | 28 | 70 | 1.6 | 9.7 | 0.00 | 0.00 | 0.00 | 81 | 1016.5 |
| 20260901061228 | 28 | 347 | 0.0 | 11.3 | 0.00 | 0.00 | 0.00 | 82 | 1016.2 |
| 20260901060729 | 28 | 295 | 3.2 | 16.1 | 0.00 | 0.00 | 0.00 | 82 | 1016.2 |
| 20260901060229 | 28 | 352 | 3.2 | 16.1 | 0.00 | 0.00 | 0.00 | 81 | 1016.3 |
| 20260901060100 | 28 | 335 | 1.6 | 9.7 | 0.00 | 0.00 | 0.00 | 81 | 1016.6 |
| 20260901055729 | 28 | 17 | 3.2 | 9.7 | 0.00 | 0.00 | 0.00 | 81 | 1016.3 |
| 20260901055229 | 28 | 281 | 3.2 | 9.7 | 0.00 | 0.00 | 0.00 | 81 | 1016.3 |
| 20260901054729 | 28 | 4 | 1.6 | 9.7 | 0.00 | 0.00 | 0.00 | 81 | 1016.2 |
| 20260901054604 | 28 | 24 | 3.2 | 11.3 | 0.00 | 0.00 | 0.00 | 81 | 1016.4 |
| 20260901054451 | 28 | 214 | 3.2 | 9.7 | 0.00 | 0.00 | 0.00 | 81 | 1016.3 |
| 20260901053728 | 28 | 108 | 3.2 | 9.7 | 0.00 | 0.00 | 0.00 | 81 | 1016.1 |
| 20260901053233 | 28 | 302 | 4.8 | 9.7 | 0.00 | 0.00 | 0.00 | 81 | 1016.3 |
| 20260901053123 | 28 | 162 | 3.2 | 11.3 | 0.00 | 0.00 | 0.00 | 80 | 1016.5 |
| 20260901052950 | 28 | 208 | 3.2 | 9.7 | 0.00 | 0.00 | 0.00 | 81 | 1016.2 |
| 20260901052229 | 28 | 36 | 3.2 | 9.7 | 0.00 | 0.00 | 0.00 | 81 | 1016.3 |
| 20260901051729 | 28 | 207 | 3.2 | 11.3 | 0.00 | 0.00 | 0.00 | 80 | 1016.3 |
| 20260901051607 | 28 | 18 | 3.2 | 11.3 | 0.00 | 0.00 | 0.00 | 80 | 1016.6 |
| 20260901051449 | 28 | 90 | 3.2 | 11.3 | 0.00 | 0.00 | 0.00 | 80 | 1016.4 |
| 20260901051221 | 28 | 142 | 3.2 | 8.0 | 0.00 | 0.00 | 0.00 | 80 | 1016.4 |
| 20260901050231 | 28 | 160 | 3.2 | 8.0 | 0.00 | 0.00 | 0.00 | 80 | 1016.4 |
| 20260901050108 | 28 | 226 | 1.6 | 9.7 | 0.00 | 0.00 | 0.00 | 79 | 1016.6 |
| 20260901045955 | 28 | 249 | 1.6 | 9.7 | 0.00 | 0.00 | 0.00 | 79 | 1016.3 |
| 20260901045455 | 28 | 230 | 4.8 | 9.7 | 0.00 | 0.00 | 0.00 | 79 | 1016.4 |
| 20260901044940 | 28 | 256 | 3.2 | 14.5 | 0.00 | 0.00 | 0.00 | 79 | 1016.6 |
| 20260901044928 | 28 | 177 | 4.8 | 12.9 | 0.00 | 0.00 | 0.00 | 79 | 1016.4 |
| 20260901044634 | 28 | 200 | 3.2 | 12.9 | 0.00 | 0.00 | 0.00 | 78 | 1016.7 |
| 20260901043729 | 28 | 274 | 4.8 | 14.5 | 0.00 | 0.00 | 0.00 | 78 | 1016.5 |
| 20260901043229 | 28 | 185 | 4.8 | 11.3 | 0.00 | 0.00 | 0.00 | 78 | 1016.6 |
| 20260901043053 | 28 | 192 | 3.2 | 14.5 | 0.00 | 0.00 | 0.00 | 77 | 1016.7 |
| 20260901042729 | 28 | 317 | 6.4 | 14.5 | 0.00 | 0.00 | 0.00 | 77 | 1016.6 |
| 20260901042229 | 29 | 191 | 6.4 | 14.5 | 0.00 | 0.00 | 0.00 | 77 | 1016.4 |
| 20260901041729 | 29 | 214 | 6.4 | 12.9 | 0.00 | 0.00 | 0.00 | 77 | 1016.4 |
| 20260901041602 | 28 | 349 | 3.2 | 11.3 | 0.00 | 0.00 | 0.00 | 76 | 1016.8 |
| 20260901041229 | 29 | 140 | 3.2 | 11.3 | 0.00 | 0.00 | 0.00 | 76 | 1016.5 |
| 20260901040729 | 29 | 335 | 4.8 | 12.9 | 0.00 | 0.00 | 0.00 | 76 | 1016.4 |
| 20260901040231 | 29 | 84 | 6.4 | 12.9 | 0.00 | 0.00 | 0.00 | 76 | 1016.4 |
| 20260901040059 | 28 | 304 | 4.8 | 12.9 | 0.00 | 0.00 | 0.00 | 75 | 1016.6 |
| 20260901035957 | 29 | 139 | 3.2 | 12.9 | 0.00 | 0.00 | 0.00 | 76 | 1016.4 |
| 20260901035231 | 29 | 302 | 8.0 | 12.9 | 0.00 | 0.00 | 0.00 | 76 | 1016.3 |
| 20260901034731 | 29 | 124 | 4.8 | 14.5 | 0.00 | 0.00 | 0.00 | 75 | 1016.2 |
| 20260901034601 | 29 | 357 | 3.2 | 14.5 | 0.00 | 0.00 | 0.00 | 75 | 1016.4 |
| 20260901034243 | 29 | 46 | 4.8 | 14.5 | 0.00 | 0.00 | 0.00 | 75 | 1016.3 |
| 20260901033728 | 29 | 324 | 8.0 | 14.5 | 0.00 | 0.00 | 0.00 | 75 | 1016.1 |
| 20260901033229 | 29 | 231 | 6.4 | 14.5 | 0.00 | 0.00 | 0.00 | 75 | 1016.1 |
| 20260901033100 | 29 | 231 | 4.8 | 14.5 | 0.00 | 0.00 | 0.00 | 74 | 1016.4 |
| 20260901032729 | 29 | 86 | 6.4 | 12.9 | 0.00 | 0.00 | 0.00 | 75 | 1016.1 |
| 20260901032229 | 29 | 297 | 6.4 | 16.1 | 0.00 | 0.00 | 0.00 | 75 | 1016.0 |
| 20260901031729 | 30 | 101 | 8.0 | 16.1 | 0.00 | 0.00 | 0.00 | 74 | 1016.0 |
| 20260901031600 | 29 | 3 | 6.4 | 17.7 | 0.00 | 0.00 | 0.00 | 74 | 1016.2 |
| 20260901031229 | 30 | 4 | 6.4 | 14.5 | 0.00 | 0.00 | 0.00 | 74 | 1015.9 |
| 20260901030728 | 30 | 211 | 8.0 | 14.5 | 0.00 | 0.00 | 0.00 | 73 | 1015.9 |
| 20260901030226 | 30 | 96 | 6.4 | 17.7 | 0.00 | 0.00 | 0.00 | 73 | 1015.9 |
| 20260901030105 | 30 | 307 | 4.8 | 17.7 | 0.00 | 0.00 | 0.00 | 72 | 1016.0 |
| 20260901025724 | 30 | 249 | 8.0 | 17.7 | 0.00 | 0.00 | 0.00 | 72 | 1015.7 |
| 20260901025219 | 30 | 150 | 8.0 | 12.9 | 0.00 | 0.00 | 0.00 | 72 | 1015.6 |
| 20260901024715 | 30 | 6 | 8.0 | 17.7 | 0.00 | 0.00 | 0.00 | 71 | 1015.2 |
| 20260901024605 | 30 | 312 | 6.4 | 17.7 | 0.00 | 0.00 | 0.00 | 71 | 1015.5 |
| 20260901024216 | 30 | 20 | 6.4 | 19.3 | 0.00 | 0.00 | 0.00 | 71 | 1015.1 |
| 20260901023705 | 30 | 157 | 6.4 | 19.3 | 0.00 | 0.00 | 0.00 | 70 | 1015.0 |
| 20260901023204 | 30 | 184 | 8.0 | 19.3 | 0.00 | 0.00 | 0.00 | 69 | 1015.0 |
| 20260901023107 | 30 | 231 | 6.4 | 16.1 | 0.00 | 0.00 | 0.00 | 68 | 1015.0 |
| 20260901022712 | 30 | 177 | 8.0 | 17.7 | 0.00 | 0.00 | 0.00 | 68 | 1014.8 |
| 20260901022217 | 30 | 68 | 9.7 | 19.3 | 0.00 | 0.00 | 0.00 | 67 | 1014.6 |
| 20260901021708 | 30 | 56 | 9.7 | 19.3 | 0.00 | 0.00 | 0.00 | 66 | 1014.6 |
| 20260901021634 | 30 | 101 | 8.0 | 17.7 | 0.00 | 0.00 | 0.00 | 66 | 1014.6 |
| 20260901021216 | 31 | 177 | 6.4 | 19.3 | 0.00 | 0.00 | 0.00 | 65 | 1014.5 |
| 20260901020923 | 31 | 44 | 8.0 | 20.9 | 0.00 | 0.00 | 0.00 | 64 | 1014.5 |
| 20260901020156 | 31 | 323 | 11.3 | 20.9 | 0.00 | 0.00 | 0.00 | 64 | 1014.3 |
| 20260901020111 | 31 | 44 | 9.7 | 20.9 | 0.00 | 0.00 | 0.00 | 63 | 1014.4 |
| 20260901015653 | 31 | 300 | 11.3 | 19.3 | 0.00 | 0.00 | 0.00 | 63 | 1014.3 |
| 20260901015147 | 31 | 208 | 6.4 | 17.7 | 0.00 | 0.00 | 0.00 | 62 | 1014.1 |
| 20260901014642 | 31 | 323 | 6.4 | 16.1 | 0.00 | 0.00 | 0.00 | 62 | 1014.1 |
| 20260901014606 | 31 | 333 | 4.8 | 19.3 | 0.00 | 0.00 | 0.00 | 61 | 1014.3 |
| 20260901014405 | 31 | 189 | 8.0 | 19.3 | 0.00 | 0.00 | 0.00 | 61 | 1014.0 |
| 20260901013632 | 31 | 150 | 9.7 | 19.3 | 0.00 | 0.00 | 0.00 | 62 | 1013.9 |
| 20260901013132 | 31 | 227 | 9.7 | 16.1 | 0.00 | 0.00 | 0.00 | 61 | 1013.9 |
| 20260901013109 | 31 | 356 | 8.0 | 17.7 | 0.00 | 0.00 | 0.00 | 61 | 1014.0 |
| 20260901012630 | 32 | 344 | 8.0 | 20.9 | 0.00 | 0.00 | 0.00 | 61 | 1013.8 |
| 20260901012400 | 32 | 108 | 9.7 | 20.9 | 0.00 | 0.00 | 0.00 | 60 | 1013.8 |
| 20260901011628 | 32 | 221 | 6.4 | 29.0 | 0.00 | 0.00 | 0.00 | 59 | 1013.8 |
| 20260901011556 | 32 | 25 | 8.0 | 27.4 | 0.00 | 0.00 | 0.00 | 59 | 1013.9 |
| 20260901011122 | 32 | 16 | 11.3 | 29.0 | 0.00 | 0.00 | 0.00 | 58 | 1013.6 |
| 20260901010632 | 32 | 207 | 6.4 | 17.7 | 0.00 | 0.00 | 0.00 | 57 | 1013.5 |
| 20260901010122 | 32 | 180 | 6.4 | 14.5 | 0.00 | 0.00 | 0.00 | 56 | 1013.6 |
| 20260901010101 | 32 | 257 | 4.8 | 20.9 | 0.00 | 0.00 | 0.00 | 55 | 1013.7 |
| 20260901005841 | 33 | 259 | 8.0 | 20.9 | 0.00 | 0.00 | 0.00 | 55 | 1013.5 |
| 20260901005116 | 33 | 303 | 8.0 | 20.9 | 0.00 | 0.00 | 0.00 | 54 | 1013.4 |
| 20260901004611 | 33 | 49 | 12.9 | 19.3 | 0.00 | 0.00 | 0.00 | 53 | 1013.3 |
| 20260901004608 | 33 | 323 | 9.7 | 20.9 | 0.00 | 0.00 | 0.00 | 52 | 1013.5 |
| 20260901004106 | 33 | 219 | 11.3 | 20.9 | 0.00 | 0.00 | 0.00 | 52 | 1013.2 |
| 20260901003614 | 33 | 110 | 9.7 | 20.9 | 0.00 | 0.00 | 0.00 | 51 | 1013.1 |
| 20260901003123 | 33 | 238 | 6.4 | 20.9 | 0.00 | 0.00 | 0.00 | 50 | 1013.2 |
| 20260901003115 | 34 | 278 | 8.0 | 17.7 | 0.00 | 0.00 | 0.00 | 50 | 1013.0 |
| 20260901002602 | 34 | 301 | 6.4 | 17.7 | 0.00 | 0.00 | 0.00 | 50 | 1013.0 |
| 20260901002104 | 34 | 158 | 8.0 | 17.7 | 0.00 | 0.00 | 0.00 | 49 | 1013.0 |
| 20260901001612 | 34 | 300 | 11.3 | 19.3 | 0.00 | 0.00 | 0.00 | 48 | 1013.1 |
| 20260901001602 | 34 | 38 | 11.3 | 17.7 | 0.00 | 0.00 | 0.00 | 48 | 1013.0 |
| 20260901001056 | 35 | 102 | 9.7 | 20.9 | 0.00 | 0.00 | 0.00 | 48 | 1012.8 |
| 20260901000552 | 35 | 283 | 8.0 | 20.9 | 0.00 | 0.00 | 0.00 | 48 | 1012.9 |
| 20260901000059 | 35 | 207 | 8.0 | 17.7 | 0.00 | 0.00 | 0.00 | 46 | 1013.0 |
| 20260901000050 | 35 | 198 | 8.0 | 17.7 | 0.00 | 0.00 | 0.00 | 47 | 1012.8 |
| 20260831235551 | 35 | 188 | 6.4 | 17.7 | 0.00 | 0.00 | 0.00 | 46 | 1012.7 |
| 20260831235045 | 35 | 126 | 6.4 | 16.1 | 0.00 | 0.00 | 0.00 | 45 | 1012.6 |
| 20260831234624 | 35 | 75 | 9.7 | 19.3 | 0.00 | 0.00 | 0.00 | 44 | 1012.8 |
| 20260831234541 | 36 | 89 | 11.3 | 19.3 | 0.00 | 0.00 | 0.00 | 45 | 1012.6 |
| 20260831234036 | 36 | 10 | 8.0 | 19.3 | 0.00 | 0.00 | 0.00 | 45 | 1012.6 |
| 20260831233540 | 36 | 355 | 9.7 | 19.3 | 0.00 | 0.00 | 0.00 | 44 | 1012.5 |
| 20260831233052 | 36 | 299 | 11.3 | 20.9 | 0.00 | 0.00 | 0.00 | 42 | 1012.6 |
| 20260831233029 | 36 | 333 | 12.9 | 22.5 | 0.00 | 0.00 | 0.00 | 42 | 1012.4 |
| 20260831232529 | 36 | 312 | 9.7 | 22.5 | 0.00 | 0.00 | 0.00 | 42 | 1012.5 |
| 20260831232029 | 37 | 137 | 4.8 | 14.5 | 0.00 | 0.00 | 0.00 | 41 | 1012.5 |
| 20260831231607 | 37 | 312 | 4.8 | 19.3 | 0.00 | 0.00 | 0.00 | 39 | 1012.5 |
| 20260831231526 | 37 | 167 | 6.4 | 20.9 | 0.00 | 0.00 | 0.00 | 40 | 1012.4 |
| 20260831231022 | 37 | 26 | 9.7 | 20.9 | 0.00 | 0.00 | 0.00 | 39 | 1012.5 |
| 20260831230522 | 37 | 66 | 8.0 | 16.1 | 0.00 | 0.00 | 0.00 | 38 | 1012.5 |
| 20260831230057 | 37 | 266 | 6.4 | 16.1 | 0.00 | 0.00 | 0.00 | 38 | 1012.7 |
| 20260831230021 | 37 | 101 | 6.4 | 14.5 | 0.00 | 0.00 | 0.00 | 38 | 1012.4 |
| 20260831225521 | 37 | 117 | 4.8 | 19.3 | 0.00 | 0.00 | 0.00 | 39 | 1012.3 |
| 20260831225241 | 37 | 147 | 6.4 | 19.3 | 0.00 | 0.00 | 0.00 | 40 | 1012.4 |
| 20260831224602 | 37 | 45 | 4.8 | 20.9 | 0.00 | 0.00 | 0.00 | 39 | 1012.6 |
| 20260831224514 | 38 | 63 | 4.8 | 12.9 | 0.00 | 0.00 | 0.00 | 41 | 1012.4 |
| 20260831224012 | 38 | 346 | 8.0 | 17.7 | 0.00 | 0.00 | 0.00 | 40 | 1012.4 |
| 20260831223509 | 38 | 57 | 8.0 | 17.7 | 0.00 | 0.00 | 0.00 | 40 | 1012.5 |
| 20260831223228 | 38 | 138 | 6.4 | 16.1 | 0.00 | 0.00 | 0.00 | 39 | 1012.3 |
| 20260831223058 | 38 | 295 | 4.8 | 16.1 | 0.00 | 0.00 | 0.00 | 39 | 1012.5 |
| 20260831222506 | 38 | 54 | 8.0 | 16.1 | 0.00 | 0.00 | 0.00 | 39 | 1012.4 |
| 20260831222008 | 38 | 133 | 6.4 | 12.9 | 0.00 | 0.00 | 0.00 | 40 | 1012.5 |
| 20260831221729 | 38 | 117 | 6.4 | 12.9 | 0.00 | 0.00 | 0.00 | 39 | 1012.5 |
| 20260831221554 | 38 | 258 | 6.4 | 12.9 | 0.00 | 0.00 | 0.00 | 38 | 1012.8 |
| 20260831221228 | 38 | 276 | 6.4 | 14.5 | 0.00 | 0.00 | 0.00 | 38 | 1012.6 |
| 20260831220506 | 38 | 335 | 8.0 | 17.7 | 0.00 | 0.00 | 0.00 | 39 | 1012.7 |
| 20260831220111 | 38 | 252 | 8.0 | 17.7 | 0.00 | 0.00 | 0.00 | 39 | 1012.8 |
| 20260831220005 | 38 | 103 | 9.7 | 17.7 | 0.00 | 0.00 | 0.00 | 39 | 1012.6 |
| 20260831215503 | 38 | 23 | 4.8 | 14.5 | 0.00 | 0.00 | 0.00 | 38 | 1012.8 |
| 20260831215003 | 38 | 268 | 8.0 | 20.9 | 0.00 | 0.00 | 0.00 | 38 | 1012.7 |
| 20260831214559 | 38 | 55 | 6.4 | 19.3 | 0.00 | 0.00 | 0.00 | 36 | 1012.9 |
| 20260831214502 | 38 | 143 | 6.4 | 20.9 | 0.00 | 0.00 | 0.00 | 35 | 1012.7 |
| 20260831214001 | 39 | 319 | 6.4 | 19.3 | 0.00 | 0.00 | 0.00 | 36 | 1012.7 |
| 20260831213500 | 39 | 213 | 6.4 | 16.1 | 0.00 | 0.00 | 0.00 | 36 | 1012.7 |
| 20260831213054 | 38 | 104 | 6.4 | 14.5 | 0.00 | 0.00 | 0.00 | 35 | 1013.0 |
| 20260831213000 | 39 | 221 | 6.4 | 16.1 | 0.00 | 0.00 | 0.00 | 36 | 1012.8 |
| 20260831212501 | 39 | 300 | 8.0 | 16.1 | 0.00 | 0.00 | 0.00 | 35 | 1013.0 |
| 20260831212001 | 39 | 277 | 4.8 | 16.1 | 0.00 | 0.00 | 0.00 | 36 | 1013.0 |
| 20260831211612 | 38 | 335 | 6.4 | 17.7 | 0.00 | 0.00 | 0.00 | 35 | 1013.2 |
| 20260831211501 | 39 | 46 | 8.0 | 17.7 | 0.00 | 0.00 | 0.00 | 36 | 1013.0 |
| 20260831211001 | 39 | 326 | 6.4 | 19.3 | 0.00 | 0.00 | 0.00 | 36 | 1013.1 |
| 20260831210501 | 39 | 41 | 8.0 | 19.3 | 0.00 | 0.00 | 0.00 | 37 | 1013.1 |
| 20260831210103 | 38 | 168 | 6.4 | 12.9 | 0.00 | 0.00 | 0.00 | 34 | 1013.3 |
| 20260831210000 | 39 | 335 | 8.0 | 12.9 | 0.00 | 0.00 | 0.00 | 35 | 1013.0 |
| 20260831205502 | 39 | 115 | 4.8 | 14.5 | 0.00 | 0.00 | 0.00 | 36 | 1013.2 |
| 20260831205003 | 39 | 56 | 3.2 | 14.5 | 0.00 | 0.00 | 0.00 | 36 | 1013.3 |
| 20260831204559 | 39 | 167 | 8.0 | 14.5 | 0.00 | 0.00 | 0.00 | 36 | 1013.6 |
| 20260831204503 | 39 | 131 | 9.7 | 14.5 | 0.00 | 0.00 | 0.00 | 35 | 1013.5 |
| 20260831204002 | 39 | 202 | 6.4 | 14.5 | 0.00 | 0.00 | 0.00 | 36 | 1013.4 |
| 20260831203501 | 39 | 16 | 3.2 | 14.5 | 0.00 | 0.00 | 0.00 | 37 | 1013.5 |
| 20260831203102 | 39 | 49 | 4.8 | 14.5 | 0.00 | 0.00 | 0.00 | 36 | 1013.8 |
| 20260831203001 | 39 | 224 | 6.4 | 14.5 | 0.00 | 0.00 | 0.00 | 37 | 1013.7 |
| 20260831202501 | 39 | 243 | 9.7 | 14.5 | 0.00 | 0.00 | 0.00 | 37 | 1013.6 |
| 20260831202001 | 39 | 12 | 4.8 | 14.5 | 0.00 | 0.00 | 0.00 | 36 | 1013.7 |
| 20260831201952 | 40 | 280 | 6.4 | 12.9 | 0.00 | 0.00 | 0.00 | 38 | 1013.7 |
| 20260831201608 | 39 | 309 | 4.8 | 14.5 | 0.00 | 0.00 | 0.00 | 39 | 1013.9 |
| 20260831201000 | 39 | 184 | 4.8 | 16.1 | 0.00 | 0.00 | 0.00 | 39 | 1013.8 |
| 20260831200501 | 39 | 103 | 6.4 | 16.1 | 0.00 | 0.00 | 0.00 | 38 | 1013.8 |
| 20260831200221 | 39 | 183 | 4.8 | 12.9 | 0.00 | 0.00 | 0.00 | 39 | 1013.9 |
| 20260831200105 | 38 | 258 | 3.2 | 14.5 | 0.00 | 0.00 | 0.00 | 38 | 1014.1 |
| 20260831195502 | 39 | 235 | 6.4 | 12.9 | 0.00 | 0.00 | 0.00 | 38 | 1013.9 |
| 20260831195229 | 39 | 108 | 4.8 | 12.9 | 0.00 | 0.00 | 0.00 | 38 | 1013.9 |
| 20260831194723 | 40 | 90 | 3.2 | 20.9 | 0.00 | 0.00 | 0.00 | 36 | 1014.1 |
| 20260831194635 | 39 | 277 | 3.2 | 20.9 | 0.00 | 0.00 | 0.00 | 35 | 1014.3 |
| 20260831194003 | 39 | 316 | 8.0 | 20.9 | 0.00 | 0.00 | 0.00 | 38 | 1014.1 |
| 20260831193515 | 39 | 23 | 3.2 | 16.1 | 0.00 | 0.00 | 0.00 | 37 | 1014.2 |
| 20260831193102 | 38 | 221 | 6.4 | 14.5 | 0.00 | 0.00 | 0.00 | 37 | 1014.4 |
| 20260831193002 | 39 | 309 | 6.4 | 16.1 | 0.00 | 0.00 | 0.00 | 37 | 1014.3 |
| 20260831192502 | 38 | 226 | 6.4 | 11.3 | 0.00 | 0.00 | 0.00 | 37 | 1014.3 |
| 20260831192002 | 38 | 298 | 4.8 | 22.5 | 0.00 | 0.00 | 0.00 | 37 | 1014.5 |
| 20260831191726 | 38 | 1 | 8.0 | 22.5 | 0.00 | 0.00 | 0.00 | 37 | 1014.5 |
| 20260831191602 | 38 | 269 | 8.0 | 20.9 | 0.00 | 0.00 | 0.00 | 37 | 1014.6 |
| 20260831191002 | 38 | 346 | 6.4 | 17.7 | 0.00 | 0.00 | 0.00 | 38 | 1014.5 |
| 20260831190722 | 38 | 29 | 4.8 | 25.7 | 0.00 | 0.00 | 0.00 | 39 | 1014.7 |